GW3611 Weather Reports


Display with metric or nautical units.
time (UTC)temp
F
wind
direction
speed
MPH
gust
MPH
rain 1hr
in
rain 24hr
in
rain mn
in
humidity
%
barometer
mb
20260906064532 67 5 0.0 0.0 0.00 0.13 0.00 96 1010.7
20260906063039 67 5 0.0 0.0 0.00 0.13 0.00 96 1010.9
20260906061552 67 5 0.0 0.0 0.00 0.13 0.00 96 1011.1
20260906060004 67 5 0.0 0.0 0.00 0.13 0.00 96 1011.3
20260906054608 67 5 0.0 0.0 0.00 0.13 0.00 96 1011.2
20260906053108 67 5 0.0 0.0 0.00 0.13 0.00 95 1011.4
20260906051506 67 5 0.0 0.0 0.00 0.13 0.00 95 1011.7
20260906050035 67 5 0.0 0.0 0.00 0.13 0.00 95 1011.7
20260906044550 67 5 0.0 0.0 0.00 0.13 0.00 95 1011.7
20260906043052 68 5 0.0 0.0 0.00 0.13 0.00 95 1011.8
20260906041556 68 5 0.0 0.0 0.00 0.13 0.00 95 1011.7
20260906040135 68 5 0.0 0.0 0.00 0.13 0.00 95 1011.7
20260906034604 68 5 0.0 0.0 0.00 0.13 0.13 94 1011.7
20260906033018 69 5 0.0 0.0 0.00 0.13 0.13 94 1011.9
20260906031510 69 5 0.0 0.0 0.00 0.13 0.13 95 1012.0
20260906030016 69 5 0.0 0.0 0.00 0.13 0.13 94 1012.1
20260906024535 69 5 0.0 0.0 0.00 0.13 0.13 94 1011.7
20260906023102 70 5 0.0 0.0 0.00 0.13 0.13 94 1011.5
20260906021558 70 5 0.0 0.0 0.00 0.13 0.13 94 1011.4
20260906020101 70 5 0.0 0.0 0.00 0.13 0.13 93 1010.9
20260906014605 70 5 0.0 0.0 0.00 0.13 0.13 93 1010.8
20260906013020 71 5 0.0 0.0 0.00 0.13 0.13 92 1010.9
20260906011550 71 5 0.0 0.0 0.00 0.13 0.13 92 1010.9
20260906010052 72 5 0.0 0.0 0.00 0.13 0.13 91 1010.7
20260906004505 72 5 0.0 0.0 0.00 0.13 0.13 91 1010.8
20260906003030 73 5 0.0 0.0 0.00 0.13 0.13 89 1010.3
20260906001546 74 5 0.0 0.0 0.00 0.13 0.13 88 1010.4
20260906000050 75 5 0.0 0.0 0.00 0.13 0.13 86 1010.3
20260905234557 75 5 0.0 0.0 0.00 0.13 0.13 85 1010.2
20260905233017 76 5 0.0 0.0 0.00 0.13 0.13 85 1010.2
20260905231542 77 5 0.0 0.0 0.00 0.13 0.13 83 1010.0
20260905230046 77 5 0.0 0.0 0.00 0.13 0.13 82 1009.9
20260905224610 78 5 0.0 3.0 0.00 0.13 0.13 79 1009.8
20260905223100 78 5 0.0 0.0 0.00 0.13 0.13 79 1009.7
20260905221558 79 5 0.0 0.0 0.00 0.13 0.13 81 1010.0
20260905220050 78 5 0.0 0.0 0.00 0.13 0.13 77 1010.0
20260905214558 78 5 0.0 4.0 0.00 0.13 0.13 78 1010.1
20260905213103 78 5 0.0 3.0 0.00 0.13 0.13 79 1010.3
20260905211601 76 5 0.0 0.0 0.00 0.13 0.13 83 1010.6
20260905210105 76 5 0.0 0.0 0.00 0.13 0.13 85 1010.7
20260905204604 75 5 0.0 1.0 0.00 0.13 0.13 87 1010.7
20260905203006 73 5 0.0 0.0 0.00 0.13 0.13 89 1010.7
20260905201534 72 5 0.0 0.0 0.00 0.13 0.13 91 1010.8
20260905200048 72 5 0.0 0.0 0.00 0.13 0.13 92 1011.4
20260905194551 71 5 0.0 0.0 0.00 0.13 0.13 93 1011.7
20260905193111 71 5 0.0 0.0 0.00 0.13 0.13 94 1011.7
20260905191520 70 5 0.0 0.0 0.09 0.13 0.13 93 1011.7
20260905190004 71 5 0.0 0.0 0.10 0.13 0.13 93 1011.6
20260905184526 71 5 0.0 0.0 0.10 0.13 0.13 93 1011.8
20260905183024 71 5 0.0 4.0 0.10 0.13 0.13 89 1011.6
20260905181543 72 5 1.0 3.0 0.01 0.04 0.04 87 1012.2
20260905180104 71 5 0.0 1.0 0.00 0.03 0.03 88 1012.1
20260905174601 71 5 0.0 4.0 0.00 0.03 0.03 84 1011.8
20260905173130 72 5 0.0 0.0 0.03 0.03 0.03 89 1012.0
20260905171609 72 5 0.0 0.0 0.03 0.03 0.03 88 1012.0
20260905170026 73 5 0.0 3.0 0.03 0.03 0.03 83 1012.0
20260905164558 77 5 0.0 0.0 0.03 0.03 0.03 82 1011.8
20260905163127 81 5 0.0 1.0 0.00 0.00 0.00 77 1011.9
20260905161615 83 5 0.0 3.0 0.00 0.00 0.00 72 1011.9
20260905160056 83 5 0.0 3.0 0.00 0.00 0.00 72 1012.0
20260905154611 82 5 0.0 0.0 0.00 0.00 0.00 75 1012.1
20260905153055 80 5 0.0 0.0 0.00 0.00 0.00 78 1012.1
20260905151604 78 5 0.0 0.0 0.00 0.00 0.00 83 1012.2
20260905150010 76 5 0.0 0.0 0.00 0.00 0.00 87 1012.3
20260905144534 74 5 0.0 0.0 0.00 0.00 0.00 90 1012.3
20260905143048 72 5 0.0 0.0 0.00 0.00 0.00 94 1012.6
20260905141555 71 5 0.0 0.0 0.00 0.00 0.00 96 1012.7
20260905140058 70 5 0.0 0.0 0.00 0.00 0.00 97 1012.8
20260905134605 69 5 0.0 0.0 0.00 0.00 0.00 97 1012.9
20260905133029 68 5 0.0 0.0 0.00 0.00 0.00 97 1013.2
20260905131542 68 5 0.0 0.0 0.00 0.00 0.00 97 1013.3
20260905130050 67 5 0.0 0.0 0.00 0.00 0.00 97 1013.3
20260905124544 67 5 0.0 0.0 0.00 0.00 0.00 97 1013.4
20260905123107 67 5 0.0 0.0 0.00 0.00 0.00 97 1013.3
20260905121506 66 5 0.0 0.0 0.00 0.00 0.00 97 1013.3
20260905120024 66 5 0.0 0.0 0.00 0.00 0.00 97 1012.9
20260905114551 66 5 0.0 0.0 0.00 0.00 0.00 97 1012.8
20260905113045 66 5 0.0 0.0 0.00 0.00 0.00 96 1012.8
20260905111545 66 5 0.0 0.0 0.00 0.00 0.00 96 1012.6
20260905110058 66 5 0.0 0.0 0.00 0.00 0.00 96 1012.2
20260905104604 66 5 0.0 0.0 0.00 0.00 0.00 96 1012.2
20260905103058 66 5 0.0 0.0 0.00 0.00 0.00 96 1012.1
20260905101601 66 5 0.0 0.0 0.00 0.00 0.00 96 1012.0
20260905100122 66 5 0.0 0.0 0.00 0.00 0.00 96 1011.9
20260905094503 66 5 0.0 0.0 0.00 0.00 0.00 96 1011.9
20260905093032 66 5 0.0 0.0 0.00 0.00 0.00 95 1011.9
20260905091556 66 5 0.0 0.0 0.00 0.00 0.00 95 1012.0
20260905090054 66 5 0.0 0.0 0.00 0.00 0.00 95 1012.2
20260905084607 66 5 0.0 0.0 0.00 0.00 0.00 95 1012.3
20260905083031 67 5 0.0 0.0 0.00 0.00 0.00 95 1012.4
20260905081544 66 5 0.0 0.0 0.00 0.00 0.00 95 1012.6
20260905080049 66 5 0.0 0.0 0.00 0.00 0.00 95 1012.7
20260905074556 66 5 0.0 0.0 0.00 0.00 0.00 95 1012.8
20260905073057 67 5 0.0 0.0 0.00 0.00 0.00 95 1012.9
20260905071603 67 5 0.0 0.0 0.00 0.00 0.00 95 1012.9
20260905070103 68 5 0.0 0.0 0.00 0.00 0.00 95 1013.0